[[{"header":{"parameterUnit":"m.s-1","parameterCategory":1,"la1":30.2991,"la2":30.254,"lo1":-89.0895,"lo2":-89.0444,"dy":0.0017,"dx":0.0017,"nx":28,"ny":28,"refTime":"2025-09-08T03:00:00:Z","depth":0,"parameterNumber":2,"parameterNumberName":"U-component_of_WINDS"},"data":[0,0,0,0,0,0,0,0,0,0,0,0,0,0,0,0,0,0,0,0,0,0,0,0,0,0,0,0,0,0,0,0,0,0,0,0,0,0,0,0,0,0,0,0,0,0,0,0,0,0,0,0,0,0,0,0,0,0,-2.3136,-2.3138,0,-2.3272,-2.3274,-2.3275,-2.3257,-2.3255,-2.3253,-2.325,-2.3392,-2.3397,-2.3403,0,0,0,0,0,0,0,0,0,0,0,0,0,-2.2861,-2.2866,-2.3136,-2.3138,-2.314,-2.3272,-2.3274,-2.3276,-2.3257,-2.3255,-2.3252,-2.3249,-2.339,-2.3397,-2.3404,0,0,0,0,0,0,0,0,0,0,0,0,0,-2.2987,-2.2868,-2.3136,-2.3146,-2.3149,-2.3272,-2.3274,-2.3276,-2.3258,-2.3255,-2.3251,-2.3248,-2.3387,-2.3396,-2.3405,-2.3527,0,0,-2.3432,-2.3435,0,0,0,0,0,0,0,0,-2.298,-2.2997,-2.3143,-2.3146,-2.3149,-2.3244,-2.3229,-2.336,-2.3259,-2.3217,-2.325,-2.3246,-2.3345,-2.3357,-2.3391,-2.3533,-2.3539,-2.3432,-2.3438,-2.3441,-2.3444,0,0,0,0,0,0,0,-2.2972,-2.2992,-2.319,-2.3145,-2.3149,-2.3145,-2.3159,-2.3254,-2.3298,-2.322,-2.3219,-2.3235,-2.3346,-2.3382,-2.3394,-2.3541,-2.3432,-2.344,-2.3445,-2.3449,-2.3791,-2.3795,0,0,0,0,0,0,-2.296,-2.2984,-2.3186,-2.3194,-2.3054,-2.3152,-2.3168,-2.3217,-2.3297,-2.3306,-2.3238,-2.3234,-2.3369,-2.3383,-2.3399,-2.3547,-2.3441,-2.345,-2.3455,-2.3787,-2.3792,-2.3796,0,0,0,0,0,0,-2.2954,-2.2978,-2.318,-2.3089,-2.3114,-2.3161,-2.3216,-2.3221,-2.3257,-2.3311,-2.3319,-2.3266,-2.3367,-2.3386,-2.3495,-2.3552,-2.3454,-2.3462,-2.3783,-2.3789,-2.3794,-2.3845,0,0,0,0,0,0,-2.2946,-2.2976,-2.3023,-2.309,-2.3119,-2.3274,-2.3219,-2.3227,-2.3272,-2.3268,-2.334,-2.3348,-2.3365,-2.3482,-2.3504,-2.3562,-2.3468,-2.3778,-2.3785,-2.3792,-2.3839,-2.3852,-2.3863,0,0,0,0,0,-2.2936,-2.3032,-2.3025,-2.305,-2.3179,-2.3277,-2.3294,-2.3312,-2.3277,-2.3324,-2.3359,-2.3346,-2.3542,-2.3493,-2.3517,-2.358,-2.3774,-2.3783,-2.3792,-2.3833,-2.3849,-2.3863,0,0,0,0,0,0,-2.2971,-2.3041,-2.3034,-2.3155,-2.321,-2.3274,-2.3335,-2.3328,-2.3395,-2.3389,-2.3408,-2.3424,-2.3535,-2.3568,-2.3512,-2.3702,-2.3653,-2.3667,-2.3677,-2.3693,-2.3705,-2.3695,-2.3476,0,0,0,0,0,-2.2992,-2.3066,-2.3124,-2.3224,-2.3252,-2.3289,-2.3332,-2.3341,-2.3399,-2.3423,-2.3465,-2.3523,-2.3598,-2.3647,-2.3718,-2.3843,-2.3858,-2.3897,-2.391,-2.392,-2.3932,-2.4001,-2.4019,-2.3824,-2.3824,-2.3824,0,0,-2.3038,-2.3085,-2.3131,-2.3232,-2.3276,-2.3353,-2.3309,-2.3392,-2.3449,-2.3436,-2.3541,-2.3574,-2.364,-2.3757,-2.3811,-2.3788,-2.3989,-2.3931,-2.3938,-2.3945,-2.4012,-2.403,-2.4046,-2.383,-2.3829,-2.3828,0,0,-2.316,-2.3203,-2.3292,-2.3336,-2.3403,-2.3427,-2.3448,-2.3513,-2.3534,-2.364,-2.3632,-2.37,-2.3828,-2.3875,-2.3916,-2.4055,-2.4046,-2.4077,-2.4143,-2.421,-2.4225,-2.4239,-2.429,-2.4307,-2.4089,-2.4089,-2.4089,0,-2.3208,-2.3323,-2.3338,-2.3422,-2.3467,-2.3458,-2.3548,-2.3591,-2.3678,-2.371,-2.3682,-2.3842,-2.3886,-2.4015,-2.4048,-2.4081,-2.4107,-2.407,-2.4221,-2.4235,-2.4249,-2.4297,-2.4316,-2.4093,-2.4092,-2.4092,-2.4092,0,-2.338,-2.3459,-2.3523,-2.3607,-2.3659,-2.3746,-2.3774,-2.3825,-2.3828,-2.3855,-2.3962,-2.4014,-2.4096,-2.4127,-2.4131,-2.4256,-2.424,-2.4217,-2.4169,-2.427,-2.4316,-2.4335,-2.4098,-2.4096,-2.4095,-2.4095,0,0,-2.3529,-2.3619,-2.3643,-2.3681,-2.3753,-2.3816,-2.3902,-2.3981,-2.4025,-2.4085,-2.4158,-2.4266,-2.4245,-2.4291,-2.43,-2.4359,-2.4467,-2.4329,-2.4331,-2.4354,-2.4609,-2.4627,-2.4648,-2.446,-2.4464,-2.4467,-2.4604,0,-2.366,-2.3812,-2.3828,-2.3964,-2.4038,-2.4029,-2.4105,-2.4157,-2.4184,-2.4251,-2.428,-2.4357,-2.4322,-2.435,-2.4408,-2.4442,-2.4519,-2.4432,-2.453,-2.4533,-2.4516,-2.4672,-2.4691,-2.4818,-2.4622,-2.4625,-2.4627,0,-2.3833,-2.3897,-2.4041,-2.4103,-2.4135,-2.4202,-2.4276,-2.434,-2.44,-2.4415,-2.4466,-2.4467,-2.4556,-2.4503,-2.4627,-2.4567,-2.4608,-2.4631,-2.4636,-2.4647,-2.4588,-2.4689,-2.4859,-2.4878,-2.4655,-2.4653,-2.4651,0,-2.3929,-2.4052,-2.4154,-2.4186,-2.4261,-2.4309,-2.4342,-2.4398,-2.4445,-2.4509,-2.454,-2.4614,-2.4655,-2.4713,-2.4734,-2.4693,-2.4857,-2.4805,-2.4873,-2.4873,-2.491,-2.4908,-2.509,-2.4933,-2.4933,-2.4933,-2.4932,0,-2.4075,-2.4163,-2.4198,-2.4261,-2.436,-2.4377,-2.4474,-2.4505,-2.4555,-2.4624,-2.4621,-2.4686,-2.4709,-2.4778,-2.4795,-2.4896,-2.4914,-2.4929,-2.4933,-2.4931,-2.4929,-2.4959,-2.4952,-2.4938,-2.4937,-2.4936,-2.4935,0,-2.42,-2.4227,-2.4338,-2.4399,-2.4416,-2.4487,-2.4539,-2.46,-2.4625,-2.4712,-2.4734,-2.4773,-2.4854,-2.488,-2.4978,-2.499,-2.5107,-2.5102,-2.5087,-2.5088,-2.5155,-2.5149,-2.5365,-2.5394,-2.5216,-2.5218,-2.5219,0,-2.4292,-2.436,-2.4428,-2.4474,-2.4509,-2.4582,-2.463,-2.4648,-2.4698,-2.477,-2.4823,-2.4902,-2.4968,-2.5097,-2.5135,-2.521,-2.5208,-2.5278,-2.5219,-2.5215,-2.5211,-2.5207,-2.5214,-2.529,-2.5292,-2.5293,-2.5295,0,-2.4452,-2.4462,-2.453,-2.4604,-2.466,-2.4719,-2.4775,-2.4813,-2.4839,-2.4895,-2.4978,-2.5028,-2.5127,-2.5207,-2.5283,-2.5318,-2.5312,-2.5313,-2.5332,-2.5332,-2.532,-2.5329,-2.5119,-2.5308,-2.5307,-2.5306,-2.5305,-2.5305,-2.4565,-2.4625,-2.4682,-2.4759,-2.4803,-2.4855,-2.4916,-2.4947,-2.5016,-2.5098,-2.5105,-2.5194,-2.5251,-2.5353,-2.5391,-2.5461,-2.5441,-2.547,-2.5477,-2.5485,-2.549,-2.5307,-2.5475,-2.5475,-2.5474,-2.5474,-2.5474,0,-2.4726,-2.4762,-2.4832,-2.4911,-2.4971,-2.4958,-2.502,-2.5071,-2.5149,-2.5203,-2.5267,-2.5361,-2.5438,-2.5481,-2.5558,-2.5606,-2.5605,-2.5626,-2.5624,-2.5632,-2.5503,-2.5479,-2.5626,-2.5625,-2.5625,-2.5625,-2.5625,-2.5625,-2.4818,-2.4919,-2.4935,-2.5058,-2.5093,-2.518,-2.5217,-2.5265,-2.5308,-2.5414,-2.5478,-2.5505,-2.5555,-2.5635,-2.5705,-2.5716,-2.5745,-2.5768,-2.5777,-2.5656,-2.5641,-2.5626,-2.5603,-2.5774,-2.5774,-2.59,-2.5901,-2.5902]},{"header":{"parameterUnit":"m.s-1","parameterCategory":1,"la1":30.2991,"la2":30.254,"lo1":-89.0895,"lo2":-89.0444,"dy":0.0017,"dx":0.0017,"nx":28,"ny":28,"refTime":"2025-09-08T03:00:00:Z","depth":0,"parameterNumber":3,"parameterNumberName":"V-component_of_WINDS"},"data":[0,0,0,0,0,0,0,0,0,0,0,0,0,0,0,0,0,0,0,0,0,0,0,0,0,0,0,0,0,0,0,0,0,0,0,0,0,0,0,0,0,0,0,0,0,0,0,0,0,0,0,0,0,0,0,0,0,0,-4.8805,-4.8806,0,-4.89,-4.8901,-4.8902,-4.8842,-4.8839,-4.8836,-4.8834,-4.8924,-4.8929,-4.8934,0,0,0,0,0,0,0,0,0,0,0,0,0,-4.8566,-4.8571,-4.8805,-4.8806,-4.8807,-4.8899,-4.8901,-4.8902,-4.8842,-4.8839,-4.8836,-4.8833,-4.8922,-4.8928,-4.8934,0,0,0,0,0,0,0,0,0,0,0,0,0,-4.8666,-4.8572,-4.8805,-4.8789,-4.8789,-4.8899,-4.8901,-4.8902,-4.8843,-4.8839,-4.8835,-4.8831,-4.892,-4.8927,-4.8935,-4.9064,0,0,-4.8958,-4.8961,0,0,0,0,0,0,0,0,-4.866,-4.8675,-4.879,-4.879,-4.879,-4.8855,-4.8849,-4.8956,-4.8844,-4.8822,-4.8834,-4.8829,-4.8904,-4.8912,-4.8939,-4.9068,-4.9072,-4.8958,-4.8963,-4.8966,-4.8968,0,0,0,0,0,0,0,-4.8653,-4.867,-4.8842,-4.8792,-4.8792,-4.8775,-4.8784,-4.8869,-4.8885,-4.8824,-4.882,-4.8832,-4.8903,-4.8932,-4.8941,-4.9074,-4.8958,-4.8965,-4.8969,-4.8972,-4.9312,-4.9317,0,0,0,0,0,0,-4.8649,-4.8665,-4.8839,-4.8845,-4.8714,-4.8783,-4.8793,-4.8838,-4.8884,-4.8887,-4.8836,-4.8829,-4.8921,-4.8932,-4.8944,-4.9097,-4.8966,-4.8973,-4.8977,-4.9308,-4.9313,-4.9318,0,0,0,0,0,0,-4.8644,-4.8665,-4.8835,-4.8754,-4.8774,-4.8791,-4.8842,-4.8842,-4.8871,-4.8893,-4.8895,-4.8863,-4.8918,-4.8933,-4.9035,-4.9099,-4.8976,-4.8983,-4.9302,-4.9309,-4.9316,-4.9406,0,0,0,0,0,0,-4.8637,-4.8664,-4.8715,-4.8756,-4.8779,-4.8927,-4.8846,-4.8847,-4.8885,-4.8877,-4.8919,-4.8922,-4.8916,-4.9024,-4.9042,-4.9108,-4.8989,-4.9297,-4.9306,-4.9314,-4.9397,-4.9415,-4.943,0,0,0,0,0,-4.8629,-4.8735,-4.8718,-4.8739,-4.8844,-4.8931,-4.8944,-4.8938,-4.8891,-4.8941,-4.8955,-4.892,-4.909,-4.9035,-4.9055,-4.9123,-4.9292,-4.9303,-4.9313,-4.939,-4.9412,-4.943,0,0,0,0,0,0,-4.8698,-4.874,-4.8721,-4.8844,-4.8885,-4.8921,-4.8984,-4.8961,-4.9014,-4.9005,-4.8992,-4.9002,-4.9108,-4.9126,-4.9064,-4.925,-4.9183,-4.9198,-4.9235,-4.9256,-4.9272,-4.9265,-4.8995,0,0,0,0,0,-4.8729,-4.8799,-4.883,-4.8935,-4.8957,-4.8968,-4.9005,-4.8997,-4.9038,-4.9054,-4.9075,-4.9114,-4.9176,-4.9217,-4.9275,-4.94,-4.9407,-4.9457,-4.9473,-4.9487,-4.9499,-4.9565,-4.9587,-4.9352,-4.9352,-4.9352,0,0,-4.879,-4.8822,-4.8866,-4.895,-4.8981,-4.9052,-4.8982,-4.906,-4.9112,-4.9065,-4.9163,-4.918,-4.9222,-4.9336,-4.9387,-4.9354,-4.9566,-4.95,-4.951,-4.9515,-4.9578,-4.96,-4.962,-4.9359,-4.9358,-4.9356,0,0,-4.8939,-4.8971,-4.9062,-4.9095,-4.9143,-4.9149,-4.9171,-4.9211,-4.9221,-4.932,-4.9286,-4.9346,-4.9453,-4.9485,-4.9515,-4.9676,-4.9646,-4.9695,-4.9781,-4.9845,-4.9864,-4.988,-4.9936,-4.9957,-4.9708,-4.9708,-4.9708,0,-4.9009,-4.9117,-4.9111,-4.9192,-4.9229,-4.9193,-4.9283,-4.9314,-4.9378,-4.9403,-4.9366,-4.95,-4.9525,-4.9646,-4.9685,-4.9711,-4.9734,-4.969,-4.9862,-4.9878,-4.9893,-4.9947,-4.9968,-4.9713,-4.9713,-4.9712,-4.9712,0,-4.92,-4.9275,-4.9343,-4.9408,-4.9452,-4.9538,-4.9542,-4.9587,-4.9575,-4.9585,-4.9684,-4.9715,-4.9778,-4.9806,-4.9794,-4.9924,-4.9902,-4.9864,-4.9796,-4.9922,-4.9971,-4.9992,-4.9721,-4.9719,-4.9718,-4.9716,0,0,-4.9395,-4.9457,-4.9481,-4.951,-4.9561,-4.9617,-4.97,-4.9764,-4.9803,-4.9848,-4.9915,-5.0007,-4.9972,-5.0006,-4.9997,-5.0054,-5.0178,-5.0008,-5.0009,-5.0038,-5.0322,-5.035,-5.0374,-5.0159,-5.0163,-5.0166,-5.0318,0,-4.9546,-4.9694,-4.969,-4.9826,-4.9894,-4.9861,-4.9932,-4.997,-4.9981,-5.0038,-5.0049,-5.0114,-5.0064,-5.0084,-5.0139,-5.0152,-5.0235,-5.0141,-5.022,-5.0223,-5.0209,-5.04,-5.043,-5.0572,-5.0338,-5.0341,-5.0343,0,-4.9742,-4.9796,-4.994,-4.998,-5.0008,-5.0073,-5.0132,-5.0188,-5.0229,-5.0233,-5.0272,-5.0253,-5.0335,-5.0266,-5.0377,-5.0313,-5.0345,-5.0356,-5.0361,-5.0367,-5.029,-5.041,-5.0617,-5.0638,-5.0374,-5.0372,-5.037,0,-4.9868,-4.9977,-5.0076,-5.0102,-5.0152,-5.0198,-5.0221,-5.0258,-5.0297,-5.0347,-5.0371,-5.043,-5.0461,-5.0505,-5.0503,-5.0453,-5.0615,-5.0546,-5.0618,-5.0618,-5.0653,-5.065,-5.0866,-5.0676,-5.0675,-5.0675,-5.0674,0,-5.0037,-5.0125,-5.0134,-5.0195,-5.0293,-5.0287,-5.0383,-5.04,-5.0434,-5.0496,-5.047,-5.0528,-5.0522,-5.058,-5.0578,-5.0669,-5.0684,-5.0687,-5.0686,-5.0689,-5.0689,-5.0709,-5.0699,-5.068,-5.0679,-5.0678,-5.0677,0,-5.0194,-5.0203,-5.031,-5.0349,-5.0361,-5.0431,-5.0463,-5.052,-5.0529,-5.0608,-5.0626,-5.0639,-5.0706,-5.0708,-5.0785,-5.0783,-5.0894,-5.0882,-5.0881,-5.0878,-5.095,-5.0943,-5.1186,-5.1217,-5.1007,-5.1009,-5.1011,0,-5.03,-5.0368,-5.0415,-5.0456,-5.0482,-5.0548,-5.0588,-5.0585,-5.0627,-5.0679,-5.0729,-5.0794,-5.0846,-5.0954,-5.0969,-5.1027,-5.1015,-5.1096,-5.1023,-5.1024,-5.1014,-5.101,-5.1016,-5.1109,-5.1112,-5.1114,-5.1115,0,-5.0487,-5.0489,-5.0549,-5.0611,-5.066,-5.0708,-5.0752,-5.0786,-5.0788,-5.0836,-5.0906,-5.0946,-5.1025,-5.1089,-5.1145,-5.1165,-5.114,-5.1139,-5.1158,-5.1162,-5.1158,-5.116,-5.0919,-5.1132,-5.1131,-5.1129,-5.1129,-5.1128,-5.0621,-5.068,-5.0722,-5.0789,-5.0823,-5.0865,-5.0921,-5.0938,-5.0996,-5.1062,-5.1056,-5.1132,-5.117,-5.1244,-5.1269,-5.1327,-5.1299,-5.1327,-5.1334,-5.1341,-5.1348,-5.115,-5.1337,-5.1337,-5.1336,-5.1336,-5.1336,0,-5.0806,-5.0832,-5.0894,-5.0958,-5.1011,-5.0986,-5.1033,-5.1078,-5.1147,-5.1186,-5.1238,-5.1317,-5.1379,-5.1399,-5.1459,-5.1502,-5.1491,-5.1517,-5.1513,-5.1518,-5.1371,-5.1348,-5.1525,-5.1524,-5.1524,-5.1524,-5.1524,-5.1524,-5.0908,-5.1006,-5.1012,-5.1125,-5.115,-5.1227,-5.1256,-5.1294,-5.1325,-5.1415,-5.1468,-5.1482,-5.1513,-5.1574,-5.1629,-5.1633,-5.1656,-5.1686,-5.1686,-5.1548,-5.1528,-5.151,-5.1488,-5.1692,-5.1692,-5.1827,-5.1829,-5.183]}]]